Theta_e
328 326 326 326 325 318 315 321 300 312 309 299 299 301 300 308 311 305 304 306 302 307 307 309 310 309 306 307 305 307 307 302 305 299 303 318 335 335 336 337 339 338 342 342 340 340 340 342 343 346 346 347 346 346 346 347 346 346 346 345 345 345 345 345 345 345 345 345 345 346 347 347 347 347 347 347 347 347 347 348 348 347 347 347 347 346 346 346 346 346 346 346 347 346 346 346 346
325 326 326 328 319 315 313 313 306 301 302 298 300 303 307 307 306 302 303 304 305 306 311 307 308 308 309 309 307 307 305 309 312 314 327 332 334 334 335 335 338 337 339 341 338 338 339 340 340 345 345 346 346 346 346 345 345 345 345 345 345 345 345 344 344 344 344 345 344 345 345 346 346 346 345 345 345 345 346 347 347 347 347 347 347 347 347 346 346 346 346 346 346 346 346 345 345
326 326 326 324 317 316 311 314 299 297 294 293 300 300 306 303 302 304 305 306 307 308 309 308 309 307 308 308 305 305 303 316 312 319 324 330 326 328 335 335 336 338 339 339 337 338 338 339 338 344 344 345 345 344 345 345 344 344 344 344 344 344 344 344 343 344 344 343 343 343 344 344 344 345 345 345 345 345 344 345 345 346 346 346 346 346 346 345 346 346 346 345 345 346 345 345 344
329 328 324 316 309 313 306 309 299 294 292 294 296 301 303 303 303 305 308 312 309 309 309 306 304 310 306 303 305 309 308 315 314 319 320 320 329 332 333 336 336 336 337 340 340 340 340 337 338 342 344 343 343 344 344 344 344 343 344 343 343 343 343 343 343 343 343 342 343 342 342 343 343 343 343 343 344 344 344 344 344 343 344 344 345 345 344 345 345 345 346 346 345 345 344 344 344
327 326 322 313 310 308 306 302 296 297 293 299 295 301 302 305 305 306 307 310 309 309 308 307 304 309 312 307 308 303 306 313 318 320 322 334 335 334 334 337 336 336 338 338 340 340 339 336 338 341 341 342 342 343 344 343 343 343 342 342 342 342 342 342 343 343 343 342 342 342 342 342 342 342 342 343 343 343 343 343 342 342 343 343 343 343 344 344 344 345 344 344 344 344 344 343 343
322 321 321 314 310 318 307 299 298 297 300 301 302 300 301 305 305 305 305 308 309 311 309 307 305 305 305 307 310 306 315 310 320 323 324 337 340 338 337 335 331 336 336 336 338 337 337 335 338 340 341 341 343 343 343 343 342 342 341 341 341 341 341 341 341 342 342 342 342 341 342 341 342 341 342 342 342 342 342 342 342 341 341 341 342 343 342 343 343 343 343 343 343 343 343 343 343
318 317 322 315 312 316 301 296 295 296 300 303 300 301 302 305 306 307 305 307 313 310 311 310 309 308 306 308 310 318 315 316 319 334 340 339 340 342 339 329 331 331 333 331 333 338 337 334 337 339 340 340 341 342 343 342 342 342 341 341 341 340 340 340 340 340 341 341 341 341 341 341 341 341 341 341 341 341 341 341 341 341 340 340 341 342 342 341 342 342 343 343 343 343 342 342 342
323 313 319 305 305 307 298 298 298 299 301 309 304 304 304 307 312 306 308 309 308 304 310 311 310 305 305 311 304 323 320 327 332 338 340 338 341 341 340 329 328 329 331 331 334 336 331 333 335 337 339 340 341 342 342 342 342 341 341 341 340 340 339 339 339 339 339 339 340 340 340 340 340 340 340 340 341 340 341 341 340 340 340 340 340 340 341 341 341 341 342 342 343 342 342 342 342
317 312 323 308 302 307 297 296 297 302 301 305 305 307 309 306 306 312 310 309 310 313 308 310 311 302 307 305 305 314 321 330 326 331 337 340 339 339 337 333 327 332 333 330 336 333 332 332 332 334 337 338 340 341 341 341 341 341 341 340 339 339 339 339 338 338 338 339 339 339 339 339 340 339 340 340 340 340 340 340 340 340 339 340 340 341 341 341 342 342 341 342 342 342 342 342 342
312 311 309 307 305 294 296 297 297 301 303 306 305 305 306 306 305 305 308 309 312 313 315 316 311 305 308 309 309 315 320 331 330 330 333 335 340 338 338 336 334 335 333 331 336 336 332 329 329 330 331 336 338 340 340 340 341 341 341 340 340 338 339 339 338 338 338 338 338 338 339 339 339 340 340 340 340 340 340 340 340 340 340 340 341 341 341 341 342 342 342 342 342 342 342 342 341
306 317 320 304 300 296 295 296 298 301 302 305 305 307 306 306 305 303 304 308 314 311 312 317 312 308 306 309 308 327 330 332 335 333 337 339 340 338 332 336 337 337 331 335 334 333 329 329 326 327 328 332 337 338 339 339 338 339 338 338 339 337 338 338 338 337 337 338 338 338 338 338 339 339 339 340 340 340 340 340 340 340 340 340 340 340 341 341 341 342 342 341 342 342 342 341 341
304 306 312 299 297 295 296 296 298 301 303 303 302 306 306 306 306 303 306 303 308 309 310 316 309 309 308 308 310 320 330 329 327 330 335 333 330 337 338 331 336 339 338 334 334 332 330 328 325 326 326 329 332 334 334 335 336 336 337 337 336 336 337 338 337 337 337 338 338 338 337 337 337 338 338 338 339 339 339 339 339 339 339 339 339 339 340 341 341 341 341 341 341 342 342 342 341
307 310 303 300 298 297 297 296 297 301 300 301 303 306 308 305 305 304 304 305 308 307 314 315 314 314 305 308 312 315 325 329 332 332 334 331 331 334 336 332 337 338 337 334 332 332 332 328 327 326 326 325 326 328 328 330 333 335 335 336 336 336 337 337 336 336 337 337 337 336 336 335 335 335 336 337 337 337 337 336 336 337 337 337 337 337 338 338 339 339 340 340 340 341 340 340 339
304 310 306 297 302 297 296 297 299 298 299 303 305 307 307 306 306 306 307 303 304 303 316 317 312 314 306 308 308 310 323 331 331 333 333 333 334 332 336 336 337 334 336 336 332 332 331 330 328 328 327 327 329 325 321 322 327 331 332 334 335 335 335 335 336 335 333 333 333 334 333 332 331 331 331 331 330 330 329 329 329 333 335 334 334 335 335 335 336 336 336 337 337 337 336 336 335
305 310 304 301 297 297 300 296 298 300 298 303 305 306 305 308 308 307 305 303 304 309 310 312 311 307 302 307 305 316 321 330 333 334 334 336 335 332 335 334 335 334 332 334 332 330 330 331 329 329 328 329 330 330 330 323 321 325 328 330 331 332 332 331 330 328 328 328 328 329 329 329 327 328 328 327 327 327 326 326 327 331 332 331 332 332 332 333 333 334 334 334 334 333 332 331 331
309 306 305 297 294 296 299 299 302 300 300 303 306 306 304 305 306 302 304 305 304 309 311 305 312 304 308 308 310 312 314 319 330 331 326 327 334 333 333 333 330 331 331 331 329 329 331 330 329 329 329 327 327 329 330 328 321 322 324 325 327 327 326 325 324 324 324 325 325 326 327 326 326 326 326 324 323 323 323 322 323 329 330 331 331 331 331 331 334 332 331 331 331 330 330 329 329
318 312 299 298 294 297 300 300 300 297 301 304 306 304 300 300 304 305 307 306 302 302 304 306 306 313 307 308 312 317 319 322 321 327 327 323 320 319 327 329 329 328 331 330 328 326 329 330 329 328 329 328 328 329 329 330 323 320 321 320 320 321 321 321 321 320 319 320 321 322 324 326 328 327 326 323 322 322 319 320 322 326 330 331 330 331 331 332 331 330 329 328 328 329 328 326 326
308 301 299 296 297 296 301 300 300 302 300 302 303 303 301 298 301 303 305 303 303 303 304 306 307 307 311 312 312 314 316 316 319 319 317 317 317 311 311 314 326 324 326 327 328 327 327 329 329 329 330 329 328 330 331 331 322 323 326 324 323 321 320 319 320 322 321 323 319 320 324 325 326 327 326 321 321 319 320 319 321 327 330 329 329 329 329 329 328 328 327 326 326 327 326 321 323
301 299 298 294 298 300 303 302 303 300 300 303 303 303 301 299 301 303 300 300 302 301 303 305 304 305 307 311 314 317 318 317 317 316 315 318 316 316 315 313 312 314 319 326 327 327 327 327 328 328 329 330 329 330 332 329 323 325 327 326 325 321 321 321 324 323 323 325 323 324 322 325 326 325 325 324 320 318 320 319 321 324 326 327 327 327 326 326 326 326 327 327 326 326 323 322 325
304 300 295 296 300 300 302 303 303 305 305 301 301 302 301 302 303 305 300 299 300 299 299 302 303 303 305 307 309 310 311 311 313 314 316 315 316 316 315 315 313 313 315 316 325 329 327 326 327 329 328 329 329 329 330 329 325 326 326 326 325 324 322 322 323 324 324 324 326 324 322 322 324 319 314 315 316 320 319 318 319 320 321 323 324 325 324 323 326 326 327 327 325 323 323 325 323
302 297 295 297 300 298 301 303 306 306 305 302 302 302 301 303 304 302 300 297 298 300 302 302 301 303 304 306 307 309 309 309 310 313 314 314 316 317 315 315 314 314 314 316 316 326 327 326 326 327 328 329 329 329 328 327 327 326 325 325 325 324 324 322 323 323 322 323 324 322 321 321 322 321 321 320 322 322 321 321 320 320 322 324 318 323 321 322 322 322 322 322 322 325 323 321 320
301 297 300 300 302 299 303 303 306 305 306 303 302 300 300 304 303 301 300 296 295 299 302 303 304 305 304 304 305 306 306 307 309 310 311 314 314 314 316 313 315 314 314 313 313 314 326 327 327 327 327 328 328 328 328 326 326 324 324 325 325 323 322 322 321 321 319 321 321 322 321 322 321 324 323 321 321 322 321 321 320 321 322 323 319 324 321 321 320 320 321 322 321 320 321 320 321
296 299 300 302 302 300 303 302 303 305 303 302 300 302 304 302 300 302 302 300 302 305 305 305 305 305 306 306 305 304 304 305 307 309 312 311 313 316 315 313 311 310 311 312 313 314 323 327 327 327 326 327 328 328 328 325 325 324 324 323 322 321 321 321 320 321 321 321 321 322 322 320 319 321 323 322 321 323 323 323 321 322 323 321 321 319 318 318 318 318 319 319 320 320 320 319 320
300 297 302 303 304 301 303 301 303 302 303 302 303 304 301 301 297 301 300 303 304 305 305 305 306 306 305 303 303 304 304 305 306 309 312 312 312 312 312 311 310 310 310 311 310 311 312 316 320 325 326 326 327 328 327 325 324 324 323 320 321 319 320 320 320 321 322 322 322 322 320 321 321 320 322 321 321 320 321 321 321 319 318 318 319 320 318 318 317 317 318 318 318 318 318 319 320
298 298 302 302 302 302 302 302 301 301 302 304 304 301 300 300 299 300 299 301 303 304 305 305 305 304 304 303 303 303 303 304 305 308 310 307 309 312 313 311 310 310 309 309 309 309 310 312 313 315 323 326 328 327 326 324 324 323 321 320 320 318 320 320 320 320 321 321 323 323 321 321 322 321 321 321 320 319 319 319 318 317 318 317 316 316 317 316 316 317 315 316 318 318 318 318 317
302 301 301 300 299 301 302 301 301 302 302 304 301 298 299 300 301 298 299 301 304 305 304 304 304 302 303 303 302 302 303 304 305 305 306 308 309 308 308 308 308 308 308 308 308 309 310 309 310 313 315 326 327 326 325 324 323 322 321 320 320 319 319 320 319 319 319 320 321 323 323 321 319 318 320 319 318 317 316 317 318 316 315 314 314 314 314 315 316 315 315 315 316 318 316 315 314
304 301 300 299 300 300 301 300 301 302 301 301 297 297 298 300 299 294 301 303 305 306 303 304 303 302 303 304 303 302 302 303 303 304 305 307 307 306 306 307 307 307 308 308 307 308 308 310 310 312 314 323 326 325 324 325 323 322 321 321 321 320 320 319 319 319 319 320 321 321 320 319 318 317 317 317 317 317 317 317 316 314 313 312 314 314 314 314 315 314 313 313 315 315 314 314 314
302 301 300 299 300 302 302 301 301 302 299 300 300 297 298 299 298 295 300 303 303 302 303 302 302 302 302 302 303 304 303 303 303 303 303 303 303 305 305 305 305 306 306 306 307 307 307 308 310 312 313 321 325 325 323 324 323 322 321 321 321 320 320 317 317 318 317 319 320 320 320 319 317 317 318 317 316 315 315 316 315 313 313 314 313 312 313 313 315 314 313 313 314 314 314 313 313
301 300 295 297 300 299 301 300 301 301 298 301 300 296 295 297 295 300 301 303 303 302 302 302 302 302 303 303 303 303 303 303 303 303 304 304 304 306 305 305 306 306 306 308 307 308 306 307 309 309 313 317 323 324 324 323 322 322 321 321 320 321 318 317 317 317 316 315 318 318 316 317 316 316 317 317 315 315 315 315 313 312 313 314 312 311 313 312 312 311 311 312 312 312 310 311 312
301 300 297 296 297 296 299 302 301 299 300 301 300 286 291 295 299 301 302 303 303 302 302 302 302 303 303 303 303 303 304 304 303 304 304 305 305 305 305 306 306 306 306 307 307 306 307 311 310 312 311 316 319 323 324 322 322 321 321 320 318 319 316 315 315 315 314 313 313 312 311 313 313 314 314 314 313 313 315 314 312 310 311 312 310 310 310 310 311 313 312 311 307 308 309 309 309
296 299 300 294 293 292 299 299 300 297 301 301 300 287 290 296 299 301 303 303 302 300 301 301 302 303 303 303 303 303 304 304 304 305 305 306 306 306 306 306 307 307 307 306 306 306 306 307 309 310 312 315 317 322 322 322 321 320 319 318 318 316 315 315 313 313 312 311 311 308 310 311 311 311 313 313 312 312 313 312 311 311 311 309 309 309 309 307 307 308 308 309 309 308 309 307 307
298 294 292 296 291 292 297 300 299 294 299 302 298 289 291 295 298 301 303 302 302 300 301 301 302 302 302 303 303 302 303 305 306 306 306 306 307 306 308 306 306 306 306 305 306 306 306 306 307 308 311 314 317 320 322 321 321 319 318 315 316 315 313 314 312 312 311 310 310 309 308 307 308 309 311 312 310 311 311 311 309 309 310 309 309 309 307 307 306 307 306 306 305 306 305 305 305
297 295 292 289 291 291 293 298 299 301 298 300 297 289 293 294 299 301 303 302 302 300 300 301 301 301 302 302 302 302 303 304 305 305 306 306 308 306 306 307 307 307 307 306 306 305 306 306 306 308 312 316 317 320 321 319 319 318 316 316 316 313 312 312 309 310 311 309 309 309 308 307 306 307 309 310 309 310 309 309 308 307 307 308 308 308 306 306 306 306 304 303 304 304 303 303 303
293 294 288 291 289 290 289 296 299 299 298 294 297 293 293 295 299 300 302 302 301 300 300 300 299 299 300 301 301 300 301 302 302 304 305 306 306 307 308 307 307 307 308 307 307 306 306 305 305 307 312 315 316 319 320 318 318 317 315 314 312 311 311 309 308 307 307 309 308 307 307 307 307 307 308 310 309 309 309 307 307 307 308 307 308 308 306 307 307 305 302 302 301 301 301 301 302
287 288 287 289 291 291 290 290 296 298 298 294 294 293 294 296 298 299 300 302 301 300 300 298 298 299 299 299 300 300 300 301 302 303 305 307 309 308 308 308 307 308 308 307 306 306 306 306 305 312 313 315 315 319 319 318 317 315 313 312 308 306 306 305 305 303 302 305 306 305 306 307 307 308 307 307 307 307 307 307 307 307 306 305 307 306 304 304 304 303 301 299 300 299 299 300 300
290 290 289 289 288 289 290 294 298 297 294 293 293 291 293 295 296 298 300 301 300 300 299 298 299 299 299 299 299 300 301 301 304 305 306 307 308 311 308 308 308 306 307 307 307 307 307 307 306 312 314 314 317 318 318 315 313 308 308 308 305 303 304 302 301 301 301 301 303 304 304 304 305 305 306 305 305 305 304 305 306 305 303 303 304 303 301 300 301 301 300 298 298 298 298 298 299
292 292 291 290 290 291 294 295 297 299 294 293 293 293 293 294 296 298 299 300 300 299 296 297 298 299 299 299 299 300 300 301 307 307 307 309 311 310 310 309 308 306 306 307 306 306 307 308 312 312 313 315 316 315 316 315 310 307 307 306 304 302 301 301 300 300 300 300 301 302 302 302 303 304 304 303 302 302 304 305 303 301 300 302 300 298 298 299 300 299 297 298 297 295 294 295 296
292 291 291 290 291 289 294 294 297 299 293 291 293 292 293 295 297 298 299 299 297 296 296 298 298 299 299 300 300 301 301 306 305 303 304 305 308 311 309 306 305 305 305 306 305 307 307 312 311 311 310 311 315 316 315 313 311 308 307 306 307 303 301 300 299 299 299 300 299 299 299 300 301 301 301 301 300 301 301 301 301 299 298 297 297 298 297 297 298 297 297 294 295 293 291 293 294
293 291 291 289 290 293 295 296 297 296 294 290 293 291 292 294 296 297 298 298 297 298 298 298 298 298 299 299 300 301 300 300 302 302 303 303 304 311 308 307 306 305 305 305 306 307 309 309 309 308 309 310 311 312 314 312 311 309 308 307 307 301 301 301 300 299 299 299 298 297 299 299 299 298 299 299 299 299 299 299 298 298 297 297 297 296 295 295 295 295 295 293 293 293 292 293 292
292 291 289 287 292 289 286 293 295 295 293 290 292 290 291 294 296 297 299 298 297 300 302 303 300 297 297 298 300 298 298 300 299 300 300 301 302 303 304 305 305 306 305 305 306 307 309 307 306 306 307 309 311 312 311 312 310 308 307 305 301 297 295 297 297 296 295 295 295 296 296 296 296 296 296 296 297 297 297 297 296 296 296 297 296 294 293 292 292 292 293 293 293 291 290 289 291
294 293 291 289 291 292 290 290 293 295 295 296 292 289 289 293 292 293 297 298 298 299 299 298 300 302 301 304 300 300 299 300 299 298 299 300 301 302 302 306 306 304 304 305 306 306 308 305 305 306 307 309 310 308 302 301 300 298 297 297 296 295 295 295 295 294 294 293 293 293 293 294 294 294 295 295 295 294 294 294 294 294 293 293 293 292 291 290 290 290 290 291 291 290 288 287 288
290 294 293 292 292 291 291 292 291 288 287 293 290 281 283 291 292 292 294 296 296 297 298 298 297 299 299 298 298 299 301 300 300 298 298 299 300 301 302 304 304 304 304 304 305 306 306 305 305 306 307 307 309 305 303 302 300 298 297 295 294 293 292 292 291 290 290 290 290 291 292 292 292 292 293 293 292 292 292 292 291 291 291 291 291 290 289 288 288 288 289 289 289 289 289 286 285
286 290 295 295 293 292 291 290 289 282 280 289 293 281 278 288 289 291 293 294 294 297 296 296 297 297 297 298 298 298 298 299 300 299 298 299 300 300 301 302 303 302 303 303 303 306 305 305 304 306 306 308 307 304 304 304 302 300 300 299 297 295 293 294 294 293 291 290 289 289 289 289 289 289 289 289 289 289 289 289 290 290 290 289 289 288 287 287 287 288 288 288 288 289 290 286 285
285 296 296 296 293 291 291 290 289 285 291 291 292 288 281 281 288 293 294 293 294 294 295 296 298 297 297 297 298 299 299 299 300 298 298 299 299 299 299 301 301 301 302 303 303 304 303 302 302 304 305 304 302 304 305 304 303 302 301 302 301 297 295 293 293 291 290 289 288 286 285 285 287 286 286 286 286 286 287 287 287 287 287 287 287 286 286 287 287 288 288 287 287 287 287 286 285
291 296 297 294 293 292 292 289 287 287 285 281 285 291 282 281 288 294 294 290 291 293 294 294 297 298 297 298 299 298 299 299 299 299 298 299 300 300 300 300 301 301 301 301 302 302 301 301 301 302 302 302 300 300 302 304 304 303 303 302 300 297 293 290 289 289 287 287 285 284 283 283 284 284 285 285 285 285 285 285 285 285 285 285 285 285 285 286 286 286 285 285 285 285 285 285 285
296 296 298 296 295 293 292 287 286 285 282 279 283 289 280 281 288 290 291 290 290 291 293 294 296 297 297 298 299 299 299 299 299 300 299 300 300 301 301 301 300 299 299 300 299 301 300 299 299 299 302 302 302 300 301 302 303 303 303 301 294 289 288 287 287 285 284 284 283 283 282 282 282 282 283 283 284 284 284 285 285 285 285 285 284 284 284 284 284 285 285 285 285 284 285 285 284
299 297 293 292 292 290 289 288 286 283 278 281 286 288 286 278 285 287 288 290 290 291 293 294 297 296 298 298 298 299 298 299 299 300 300 301 301 301 301 300 298 297 298 298 297 298 298 297 298 298 300 302 302 300 300 300 300 302 302 293 291 289 288 286 285 284 284 284 283 282 282 281 281 281 282 282 282 283 283 283 284 285 285 285 284 284 284 284 284 285 285 285 284 284 284 284 284
296 290 289 286 286 288 285 285 286 278 277 284 288 289 289 278 282 288 292 293 294 293 293 294 294 295 296 298 298 299 298 298 299 298 299 301 300 301 301 299 297 297 296 296 296 296 296 296 296 297 299 300 299 299 299 300 299 298 296 293 292 290 288 286 285 284 284 283 283 282 281 281 280 280 280 281 281 282 282 283 284 284 283 283 283 284 284 284 284 284 284 284 284 284 284 284 283
291 290 285 281 279 280 277 281 277 278 277 283 288 290 284 282 287 290 292 293 295 296 296 295 295 295 295 297 298 299 299 298 299 299 299 300 299 299 298 299 297 295 294 294 294 294 295 295 294 294 296 297 296 298 298 296 294 294 294 293 291 290 288 286 286 285 284 283 282 281 281 280 280 279 280 280 280 281 282 282 283 282 282 283 283 284 284 284 284 284 283 283 283 283 282 282 282
290 286 283 280 276 275 273 277 280 279 284 288 286 289 281 286 289 293 293 295 296 296 296 297 296 295 295 296 298 298 300 299 299 299 300 298 299 299 300 299 298 295 294 293 292 291 292 292 292 291 290 292 294 295 293 291 290 290 291 290 290 290 289 288 286 285 284 283 282 281 281 280 279 279 279 279 280 281 281 281 281 281 282 282 282 283 283 283 283 283 283 282 282 282 282 282 281
290 293 289 283 281 276 272 275 273 275 279 283 288 281 279 278 283 293 294 294 295 296 295 296 296 297 297 298 297 298 298 298 299 298 298 298 299 299 298 298 296 294 293 291 290 289 289 289 289 289 289 289 290 291 290 289 289 289 288 289 289 289 288 287 287 286 285 284 282 281 280 280 279 278 278 279 279 280 280 280 281 281 281 281 282 282 282 282 282 282 282 281 281 281 281 281 281
292 293 288 284 282 285 278 280 279 278 279 279 280 280 284 284 292 294 296 296 296 296 295 295 295 296 295 296 296 297 297 298 298 298 298 299 299 299 297 296 295 292 291 289 288 288 287 287 288 288 287 286 288 289 289 288 288 288 288 288 288 288 287 286 286 285 285 284 281 280 279 278 278 278 278 278 278 278 279 279 279 279 280 280 281 281 281 281 281 280 280 280 280 281 280 280 279
288 289 283 286 293 288 282 283 286 284 280 278 282 283 287 292 293 294 295 295 295 295 295 294 295 295 295 295 296 295 297 297 297 297 296 296 298 297 295 294 293 291 289 288 288 288 287 287 286 286 286 287 288 288 287 287 287 287 287 288 287 287 286 285 285 284 283 282 280 279 278 278 278 278 278 279 278 278 278 278 278 278 279 279 279 279 280 280 279 279 279 279 278 279 278 278 278
289 283 288 296 296 292 282 276 278 276 274 276 281 279 281 282 279 290 290 289 291 292 293 294 295 294 294 294 295 296 296 297 297 296 296 296 296 295 294 293 291 289 288 288 288 287 287 287 286 285 285 287 287 287 286 286 286 286 286 286 286 286 286 285 284 283 282 281 279 279 279 278 278 278 278 278 278 278 278 278 278 278 278 278 278 278 278 278 278 278 278 278 278 278 277 277 277
292 288 294 285 281 280 283 281 273 272 273 275 279 281 282 283 283 288 288 289 290 291 292 293 292 292 293 294 295 295 296 296 295 295 294 293 294 293 291 291 290 289 288 287 287 287 286 285 285 285 285 287 286 285 285 285 285 285 286 285 284 284 284 283 283 283 282 280 279 278 278 278 278 278 278 278 278 277 277 277 277 277 277 277 278 278 278 278 278 277 277 277 277 277 276 275 276
299 296 291 293 283 282 279 281 280 279 275 274 276 278 278 286 286 289 289 291 291 290 291 291 291 292 293 294 296 295 295 295 295 294 294 293 292 292 291 290 288 287 286 286 285 285 284 284 283 283 283 284 284 284 284 284 284 284 283 283 283 283 283 283 282 282 281 280 279 278 277 277 277 277 278 278 277 277 277 276 276 276 276 276 276 277 277 276 276 276 276 276 276 276 274 274 274
287 286 286 286 285 288 284 282 280 278 275 275 275 274 279 286 291 291 291 292 291 291 291 291 292 293 293 294 295 295 295 294 293 293 292 291 291 290 290 288 287 286 285 284 284 284 283 283 282 281 281 282 283 283 283 282 283 283 283 282 282 282 282 282 282 281 280 279 279 279 278 278 277 276 276 276 276 276 275 275 275 275 275 275 275 275 275 275 274 274 274 274 275 275 274 273 273
290 288 285 287 284 281 277 276 283 282 279 275 273 274 282 289 293 292 291 291 292 292 292 293 292 292 294 295 294 294 293 294 293 292 291 290 290 289 288 286 286 284 284 283 284 283 283 282 283 282 281 282 282 282 282 282 282 282 282 282 282 282 282 281 281 280 280 279 278 278 277 277 275 275 275 275 275 275 274 274 274 274 274 274 274 274 274 274 274 273 273 274 274 273 273 272 272
Wind_Speed
14 13 13 15 11 9 9 2 3 2 2 4 6 4 2 1 1 7 10 9 7 6 6 4 4 4 4 4 9 8 8 7 3 3 1 2 2 6 5 5 6 6 8 9 8 7 7 7 7 11 10 10 10 9 9 9 8 9 9 8 7 5 3 6 7 8 8 7 7 5 5 5 5 6 6 6 6 5 5 5 4 5 5 4 4 4 4 3 3 2 2 3 4 4 4 4 4
12 13 13 13 8 5 3 4 2 4 4 5 1 6 0 4 5 8 8 7 5 6 3 2 3 3 5 6 5 5 7 6 0 3 2 3 4 3 6 6 5 7 6 8 8 7 7 7 8 10 9 10 10 10 9 9 8 8 8 9 8 7 7 6 5 6 6 7 7 7 6 6 6 6 6 6 6 6 6 6 6 5 5 5 5 4 3 3 3 3 3 4 4 3 4 4 4
12 12 11 8 9 3 5 3 3 4 5 5 3 5 7 6 9 8 9 7 6 5 3 5 2 5 4 5 8 6 2 1 7 3 3 6 5 4 5 4 5 5 6 7 8 7 7 8 8 10 10 11 11 10 9 9 9 9 8 8 8 8 8 7 7 7 6 5 6 6 7 8 8 7 6 7 7 6 6 5 6 5 5 5 4 4 4 3 2 2 3 2 2 3 3 2 1
11 10 8 6 5 5 3 2 3 5 5 3 4 6 8 5 7 6 4 4 2 1 3 7 5 4 5 6 6 8 4 1 5 1 3 2 1 7 6 5 6 5 5 4 6 6 7 10 10 8 9 11 11 10 9 9 9 9 9 8 8 7 7 8 8 7 7 7 7 7 6 5 6 7 7 7 8 7 6 5 5 6 4 5 4 4 3 4 3 1 0 1 1 1 1 0 1
11 7 5 5 4 3 2 2 3 3 5 1 4 4 7 4 4 5 4 3 3 4 4 6 5 3 0 4 4 3 2 4 4 2 2 3 3 6 6 5 4 5 5 4 5 5 7 16 12 8 7 5 11 12 10 9 8 8 8 8 7 7 6 6 8 8 8 7 6 7 7 7 6 6 5 5 6 6 6 6 6 3 2 2 3 1 2 2 2 1 0 2 2 3 2 2 1
10 8 5 4 2 2 2 2 4 5 6 3 1 3 4 7 5 7 6 5 5 2 2 4 6 8 6 7 3 3 2 2 3 1 3 2 3 5 5 4 4 4 4 5 6 5 8 14 13 10 9 6 5 5 10 10 9 9 8 8 8 7 7 5 6 7 7 8 7 7 7 7 7 7 6 6 5 5 5 5 3 2 2 2 2 3 2 1 1 0 2 2 2 2 1 1 1
5 7 1 3 4 1 2 4 5 5 3 3 4 5 6 6 4 4 6 5 2 5 6 4 4 4 4 1 4 1 4 3 1 2 4 3 3 3 4 4 3 4 5 4 5 6 10 13 12 10 10 8 7 8 5 11 9 9 9 8 8 7 7 6 5 5 6 7 8 8 8 8 7 7 7 7 7 6 5 5 4 3 1 2 3 1 2 1 1 2 2 2 2 1 1 2 1
5 3 1 2 2 2 4 5 5 5 3 0 5 4 6 4 2 3 3 3 3 6 3 6 8 6 8 9 6 0 2 8 8 5 5 5 3 3 2 3 3 4 4 4 4 6 10 13 12 10 10 10 9 8 7 9 10 9 9 8 8 7 7 7 6 6 5 6 7 8 8 8 7 8 8 8 8 7 7 6 5 4 3 2 1 1 0 2 1 2 2 2 2 2 2 2 3
4 4 1 2 3 2 4 6 6 5 9 6 7 5 2 3 3 2 1 2 4 3 6 6 4 5 2 11 6 5 3 4 7 4 6 4 4 3 1 2 3 3 3 4 7 7 6 10 10 10 8 9 9 9 8 8 10 10 9 9 8 8 8 8 7 7 7 6 7 8 8 9 9 9 9 8 8 8 8 7 7 5 4 3 3 4 4 4 5 5 4 4 4 3 3 3 2
5 3 1 2 1 4 4 5 7 2 1 3 5 8 6 7 6 6 3 3 2 1 2 2 3 6 7 4 6 3 2 2 3 4 3 4 3 3 1 2 2 5 3 2 6 6 6 9 10 8 8 7 9 9 7 7 8 10 10 10 9 7 8 8 7 7 6 7 7 7 8 8 8 9 9 9 9 8 8 8 8 7 8 7 7 7 7 6 6 6 6 5 5 5 5 5 4
4 2 1 2 2 3 4 5 7 8 7 7 8 13 10 4 7 7 5 5 4 4 5 5 2 4 6 4 5 1 3 3 5 4 4 3 2 1 2 3 2 5 4 2 4 6 7 6 9 8 8 7 7 7 5 4 4 5 4 5 5 8 8 8 8 7 6 6 8 8 6 6 8 8 8 8 9 9 8 9 10 10 10 9 8 9 9 9 9 9 8 7 7 7 6 6 6
3 2 1 3 3 4 5 5 7 7 9 9 5 9 7 8 7 7 8 8 5 5 3 3 1 3 3 3 2 2 8 6 4 3 2 1 2 3 1 3 2 1 3 3 4 5 6 6 5 6 7 7 6 7 4 4 4 5 5 5 5 4 6 7 7 6 6 7 7 7 6 3 3 4 4 5 6 7 7 9 8 8 8 8 8 9 9 9 10 10 10 9 8 7 6 6 6
3 2 2 2 3 4 7 8 5 5 7 6 8 6 6 8 8 8 7 6 6 6 1 2 1 3 3 2 3 8 3 2 2 1 3 3 4 5 1 1 4 2 1 4 3 3 6 6 5 5 5 7 6 5 5 5 5 5 5 5 5 5 5 5 5 5 5 5 6 8 7 7 5 3 1 2 3 3 2 3 3 3 4 3 4 4 5 6 6 7 8 8 9 8 7 6 6
2 2 1 3 2 5 6 5 6 4 5 8 5 5 7 6 7 8 3 7 9 9 2 2 3 2 5 4 6 5 2 3 4 3 3 3 1 1 1 4 3 1 2 3 3 3 5 6 6 6 6 6 4 4 4 4 5 6 5 5 4 4 5 4 4 5 7 7 7 6 8 10 9 9 9 11 10 10 9 8 7 6 3 2 2 1 0 1 1 2 3 5 5 6 6 6 5
4 3 2 2 3 5 4 4 3 2 4 8 6 8 11 7 9 6 10 13 11 6 8 8 4 4 2 4 4 1 5 4 3 3 3 3 3 3 3 3 2 3 4 4 4 4 4 5 7 6 7 6 6 5 4 4 6 6 6 6 6 6 7 8 9 9 8 7 7 7 7 7 7 7 9 9 8 8 6 5 6 7 5 4 3 3 2 1 1 1 4 2 2 4 5 5 5
3 3 2 2 4 3 3 5 3 2 0 10 11 12 11 10 11 13 9 10 9 8 5 6 2 5 6 7 6 10 16 4 3 0 1 1 2 3 4 4 4 5 5 5 5 5 5 5 5 6 7 7 5 5 5 6 6 7 6 7 7 8 9 9 9 9 8 8 7 6 4 4 4 5 9 7 9 7 4 3 3 5 5 4 4 3 3 2 6 7 5 4 2 2 1 3 3
1 2 3 2 5 4 5 5 7 2 9 9 12 12 13 12 10 9 8 10 15 12 10 9 8 4 9 7 7 6 6 5 1 0 3 3 2 4 4 4 4 4 4 6 6 6 6 6 6 5 7 7 7 6 5 7 8 9 6 7 7 7 7 9 9 8 7 6 6 5 5 4 3 4 5 5 7 5 4 3 2 2 3 5 5 4 4 5 4 5 4 3 3 4 3 3 3
3 2 3 4 3 5 6 7 6 7 9 10 13 12 13 13 12 10 11 11 11 11 8 9 10 7 7 7 9 8 7 6 4 3 4 4 3 4 5 2 4 5 6 6 7 6 6 6 7 6 6 8 8 6 5 6 7 9 7 6 5 6 6 6 6 5 6 5 6 5 3 4 4 4 4 6 5 5 4 2 1 2 7 8 7 7 7 6 4 1 2 3 6 6 6 2 2
4 3 3 4 4 6 7 7 7 6 8 10 11 11 12 13 13 10 13 14 11 12 11 10 12 13 13 9 5 4 4 4 5 5 5 4 4 5 5 4 6 5 3 7 6 10 9 8 7 9 7 8 8 7 5 7 9 7 8 7 5 6 5 5 4 5 4 5 5 5 5 4 6 2 5 5 6 6 5 2 3 5 7 7 5 5 5 4 2 2 5 6 6 7 4 3 4
2 3 4 5 5 8 9 7 6 5 6 10 12 11 12 13 10 9 12 16 12 14 12 9 9 9 12 14 14 13 11 10 9 7 5 6 6 5 5 5 6 6 8 6 7 8 11 10 11 10 9 10 9 7 6 7 8 7 7 8 7 6 6 5 4 5 6 5 7 6 6 4 5 5 8 11 9 5 4 5 7 8 8 9 9 4 5 5 6 7 7 8 5 4 5 6 3
5 4 4 6 10 9 7 8 5 4 5 9 11 12 13 12 9 10 13 16 10 8 9 11 14 15 15 14 14 10 9 9 8 7 8 7 6 5 5 5 7 7 6 6 7 7 10 8 7 7 9 9 9 8 7 7 8 7 7 8 8 7 7 6 6 4 3 3 3 2 3 1 4 6 5 4 4 5 4 5 4 5 5 5 7 4 5 4 4 4 4 6 5 5 5 1 1
5 6 8 8 6 7 7 8 7 5 5 8 11 12 12 10 11 9 12 12 12 9 12 12 12 13 14 15 14 11 10 9 8 6 5 5 5 5 4 4 6 8 5 7 6 1 10 10 9 9 10 9 10 8 8 7 8 7 7 7 8 7 6 6 5 4 3 3 2 3 2 4 2 4 4 4 5 6 6 5 6 6 5 5 7 5 5 5 3 3 3 4 4 2 1 3 5
5 7 8 8 7 7 7 10 9 5 7 9 11 10 11 11 13 11 12 13 14 13 14 14 12 11 12 11 10 11 10 9 7 6 5 5 5 4 4 4 5 5 6 5 3 4 8 10 10 10 9 9 10 8 7 6 7 7 7 7 7 6 6 7 6 6 4 4 4 4 3 4 3 4 6 6 7 8 7 7 7 7 7 7 7 5 4 3 2 4 2 3 3 3 3 3 3
6 6 8 8 5 9 10 12 10 9 9 10 10 11 12 11 16 6 9 11 14 14 13 14 11 8 6 9 9 11 11 8 7 5 3 4 5 7 6 6 7 6 5 4 5 5 4 3 6 9 10 9 8 8 8 7 7 7 7 7 7 7 7 6 6 7 6 6 4 3 2 4 5 6 5 6 6 3 4 4 5 2 2 2 2 6 4 4 4 2 0 2 2 2 3 1 2
4 6 6 10 10 11 12 10 11 11 10 11 9 9 10 10 13 11 13 14 13 9 6 8 6 5 7 10 11 10 10 9 7 5 4 5 5 5 5 6 6 5 6 6 6 6 5 5 5 5 6 11 9 8 8 7 7 6 7 7 6 7 6 6 6 6 6 6 3 2 4 6 6 6 5 4 4 3 2 1 1 3 1 1 4 2 4 1 2 4 2 2 4 4 1 1 1
4 7 10 11 13 13 13 13 13 12 8 6 9 9 9 12 12 11 13 8 5 5 5 6 5 6 9 11 11 10 9 9 8 6 5 4 4 5 6 5 4 5 6 6 6 6 5 5 6 6 5 10 10 8 8 7 8 7 8 8 7 7 6 7 6 7 7 6 5 5 7 6 6 5 5 5 3 2 2 1 2 1 5 4 5 6 2 1 1 2 1 2 3 0 1 3 2
10 11 12 13 15 15 12 13 12 9 8 9 11 10 13 15 8 6 9 10 4 4 7 8 10 10 11 11 10 9 9 9 9 8 7 5 5 6 6 6 7 7 8 8 7 6 6 5 5 4 6 8 9 9 8 8 8 7 8 8 7 8 8 6 7 7 6 6 7 7 4 4 2 3 4 4 3 4 3 1 1 3 4 3 3 5 3 3 5 6 4 5 0 2 2 2 2
9 11 13 14 14 14 13 13 11 5 6 7 11 12 17 21 8 9 8 5 4 5 6 9 10 10 10 9 10 9 9 8 6 6 10 10 5 4 4 4 5 5 5 5 4 4 4 4 4 5 5 6 10 9 8 8 9 8 8 9 8 9 7 7 7 7 7 8 8 7 4 4 2 3 5 4 3 4 3 2 0 4 3 2 1 3 5 2 5 4 5 3 5 1 4 2 1
10 11 13 12 14 13 7 5 2 3 7 6 10 11 6 8 9 9 8 10 12 13 13 13 12 12 12 11 9 7 8 8 6 5 7 6 5 6 6 5 6 7 6 7 5 2 4 4 3 4 4 5 9 10 10 7 7 8 8 8 8 9 6 7 7 7 6 6 6 6 2 1 1 3 5 4 4 4 3 3 1 4 3 5 1 3 4 3 4 4 1 2 4 4 2 4 1
10 9 8 11 7 6 6 3 3 1 3 6 9 4 4 8 9 10 6 12 14 13 12 11 10 10 10 10 9 7 8 8 7 5 4 5 5 5 6 5 6 4 3 4 4 4 4 4 3 3 5 7 7 9 9 7 7 8 7 6 8 8 6 7 7 5 7 6 6 5 4 5 5 4 4 5 4 5 4 3 3 3 4 5 2 3 4 1 2 4 1 1 3 4 1 1 1
6 7 6 5 5 2 4 3 3 3 7 7 6 5 8 8 11 12 12 14 13 13 12 12 10 10 9 8 8 7 6 5 6 7 5 5 6 5 5 4 2 3 4 4 5 5 5 5 3 3 5 5 5 7 9 8 7 7 6 6 7 6 7 7 6 8 7 6 6 5 5 4 3 3 5 4 5 5 4 4 4 2 4 3 1 4 2 2 3 2 1 1 3 2 1 3 1
6 4 2 0 4 5 8 6 6 5 3 2 5 4 5 14 14 11 14 12 13 13 12 12 10 8 8 7 7 7 6 5 7 7 5 5 4 3 2 3 4 5 5 4 4 4 5 5 5 4 4 4 4 5 7 7 7 6 5 6 5 5 7 6 6 9 7 6 6 5 3 4 3 3 4 4 4 5 5 5 3 1 5 5 5 1 2 2 2 3 3 4 2 1 2 1 0
2 2 3 4 4 7 8 3 9 3 7 6 6 8 11 11 13 16 13 14 14 12 11 10 10 7 6 5 5 5 5 4 4 4 4 4 3 4 4 5 6 6 5 5 4 5 5 6 6 5 4 3 3 4 7 5 6 6 4 6 5 4 6 7 6 9 8 6 6 5 3 4 2 3 3 3 4 5 4 5 5 2 2 1 0 2 2 4 3 3 3 3 4 0 4 2 3
1 2 4 5 8 7 6 7 3 8 8 7 6 8 7 13 16 15 16 13 13 10 10 10 7 4 4 4 4 4 4 4 4 4 5 5 4 3 6 6 4 4 4 5 4 5 5 5 6 4 4 3 3 4 6 6 5 5 6 6 5 5 5 6 7 7 8 8 7 5 3 3 3 2 2 1 4 3 3 5 4 1 3 0 1 2 0 3 2 3 4 5 6 6 2 2 4
4 6 6 7 6 9 10 8 6 7 7 9 8 8 8 10 16 15 14 13 11 11 10 6 7 6 5 4 4 4 4 5 3 5 4 5 1 5 4 4 4 3 2 2 4 4 5 5 6 2 3 2 3 6 7 5 5 5 6 7 7 6 7 7 7 7 6 7 8 6 5 4 2 1 1 1 4 4 4 5 5 4 1 1 1 2 4 2 4 4 4 4 4 5 4 5 4
7 8 6 8 8 7 7 8 6 9 8 7 3 9 13 13 15 16 14 11 10 11 8 4 6 6 6 5 5 6 6 5 5 5 5 4 5 4 3 3 3 4 2 2 4 3 4 7 4 2 1 2 2 6 7 5 4 6 7 6 7 6 6 7 8 7 6 7 7 6 4 5 4 4 4 3 5 5 4 5 4 1 1 2 2 4 3 3 4 4 4 4 5 6 7 7 6
8 7 6 8 10 10 9 5 8 3 6 3 8 9 12 14 14 14 14 11 10 8 3 4 4 5 4 4 4 5 5 4 4 5 4 4 4 3 4 2 2 4 4 2 4 5 4 6 3 3 2 1 6 5 5 6 6 5 4 5 6 5 6 7 7 6 6 5 3 3 5 5 5 5 4 4 3 2 6 5 5 1 3 6 7 6 5 5 4 4 4 5 4 6 7 7 7
7 6 6 8 8 9 7 10 5 6 7 7 7 10 12 13 13 13 12 10 8 3 3 2 3 3 3 3 4 3 4 2 5 6 8 5 2 4 3 3 5 5 5 4 4 5 5 6 5 4 5 4 1 4 4 3 5 5 5 5 6 6 6 6 7 6 6 5 4 4 4 3 2 3 5 4 3 2 5 6 6 1 5 6 6 5 5 5 5 5 2 5 5 6 5 6 7
5 4 5 6 7 7 10 3 7 9 8 8 10 10 11 13 12 12 11 9 4 8 3 3 3 2 2 2 2 1 3 6 7 9 9 8 9 3 2 4 4 4 5 4 3 3 4 5 5 5 5 6 6 2 2 3 3 4 6 5 6 6 4 5 6 6 6 6 5 4 4 3 3 4 5 5 3 4 5 6 5 5 6 6 6 5 5 5 5 5 5 5 6 4 6 6 8
4 3 3 5 6 6 4 5 10 11 6 8 8 11 12 10 9 8 2 4 5 4 1 1 4 2 2 2 1 4 4 6 6 6 6 6 6 6 4 5 4 4 4 5 4 3 4 5 3 1 2 4 5 7 2 2 3 4 6 4 8 7 6 7 8 7 6 6 5 4 5 6 6 5 6 5 4 4 4 5 4 4 5 5 6 7 6 6 5 6 6 6 3 5 3 6 7
3 4 3 5 5 5 6 8 10 7 11 3 11 9 8 3 3 1 2 3 7 6 0 3 1 1 1 0 3 5 5 5 4 4 5 6 7 6 5 3 3 4 4 4 4 3 3 3 2 3 1 2 4 3 7 8 10 10 10 11 10 10 6 6 6 5 4 5 6 6 5 6 6 6 6 5 5 4 4 4 4 4 6 6 6 7 7 6 6 5 5 6 7 5 5 4 6
3 4 3 3 6 8 9 10 10 5 3 5 11 8 2 2 2 2 4 4 5 4 0 1 1 1 2 1 2 5 6 4 3 4 5 5 5 5 5 4 3 2 4 3 3 3 3 2 2 3 4 4 1 6 5 6 7 7 7 7 6 5 6 6 7 8 6 6 6 5 6 6 6 6 5 5 5 4 5 5 4 5 6 6 6 7 7 7 7 7 5 5 6 4 7 6 4
2 0 3 4 5 7 8 9 6 4 3 3 7 2 6 2 4 4 4 4 6 6 2 1 1 2 1 2 1 4 5 3 1 3 5 5 5 5 5 4 4 4 3 2 2 3 5 4 4 1 2 4 4 5 4 6 6 5 5 6 6 6 7 4 4 6 7 6 6 7 6 6 6 6 6 5 5 5 5 5 5 6 7 7 7 7 8 7 6 5 5 7 6 6 7 8 5
3 2 2 2 4 6 6 5 3 5 4 10 7 6 4 9 5 8 6 6 6 6 4 2 0 1 1 1 1 1 5 3 1 3 4 4 4 4 4 2 3 2 1 1 2 3 4 4 2 0 2 4 3 4 3 3 5 6 5 5 6 6 5 6 7 7 7 7 8 7 6 6 6 5 6 6 5 6 6 6 6 7 7 7 7 7 7 5 6 6 7 7 7 7 7 8 7
1 5 4 3 4 6 6 3 3 4 5 7 3 6 3 6 5 7 7 7 4 7 1 3 1 1 1 0 1 3 5 4 2 2 4 3 2 3 2 1 2 2 3 3 4 3 3 3 2 1 2 3 3 2 4 1 2 4 6 4 5 4 7 6 7 7 7 7 9 7 7 6 6 6 5 6 6 5 5 6 6 7 7 7 7 8 7 7 8 8 8 8 8 8 7 6 8
4 4 3 4 5 5 6 4 3 3 1 7 6 5 4 9 3 8 2 1 3 1 1 2 1 2 0 2 0 2 1 5 4 2 4 2 1 0 0 1 2 2 1 1 4 2 1 2 1 1 1 2 2 2 1 2 3 3 5 5 7 7 7 7 7 7 7 7 9 8 6 6 6 6 6 6 6 5 6 6 7 7 7 7 7 8 8 8 8 8 8 8 7 9 6 7 7
6 4 4 5 4 5 4 3 3 3 5 10 12 11 5 6 2 4 1 2 1 2 4 3 1 1 0 1 1 3 1 2 4 4 3 1 3 2 0 0 2 2 1 0 0 2 1 1 0 1 1 0 0 1 1 3 3 3 3 7 10 10 8 8 9 8 8 8 8 7 7 6 6 6 6 6 6 6 6 6 6 7 7 7 8 7 8 8 8 8 8 9 9 9 7 8 8
2 1 2 4 7 3 2 2 5 1 4 4 7 4 8 5 3 4 1 2 2 5 9 7 1 1 2 1 2 2 1 1 2 4 3 1 1 1 1 0 2 3 2 1 1 0 0 0 0 1 2 2 0 1 2 4 2 3 4 9 9 9 9 8 9 9 8 8 8 8 7 7 6 6 6 6 6 5 5 5 5 6 6 5 6 6 6 6 7 7 7 7 7 7 6 6 5
2 2 2 0 3 0 2 2 2 6 6 4 5 1 4 13 10 7 11 15 13 9 8 5 1 1 3 2 2 1 1 1 2 4 3 1 0 1 2 2 2 2 3 3 3 1 1 1 1 2 3 3 2 3 3 1 3 2 4 7 8 8 8 8 8 8 7 8 8 8 8 7 7 7 6 6 5 5 4 6 6 6 6 6 6 8 8 8 8 8 9 9 9 9 7 7 7
4 3 3 2 2 1 4 3 4 5 4 1 1 9 7 8 8 10 12 13 11 8 4 2 1 1 4 4 2 1 1 1 1 4 2 3 1 1 0 1 1 2 3 4 3 3 2 1 2 1 2 1 1 1 3 4 3 3 4 6 7 7 8 8 8 9 8 7 7 8 7 7 7 6 6 6 6 7 7 7 7 7 7 7 7 7 7 7 8 8 8 9 9 7 7 7 7
7 4 2 1 1 1 3 1 3 4 4 6 9 5 4 2 2 4 3 5 6 5 4 3 3 2 3 2 3 5 3 0 0 4 3 3 1 0 0 1 1 2 3 4 4 4 3 3 2 3 2 1 1 1 3 4 5 5 5 5 5 6 7 7 7 7 9 9 8 8 8 7 7 6 7 6 6 7 7 7 7 8 7 7 7 7 8 8 8 9 8 9 8 7 7 7 6
3 1 2 1 3 1 4 2 5 5 9 9 3 5 0 4 4 9 11 14 9 6 6 5 6 5 5 3 4 0 1 1 1 2 2 2 1 1 1 1 2 3 3 4 4 4 4 4 3 3 4 4 3 1 2 3 4 5 7 8 7 7 6 7 7 7 8 8 8 8 9 8 8 8 7 7 7 7 7 8 8 8 7 7 6 7 8 8 8 9 8 8 9 5 7 7 5
3 2 2 3 3 1 2 5 7 8 5 12 2 8 8 8 11 10 13 13 10 5 6 5 3 2 2 5 4 2 0 0 1 1 2 4 2 2 2 2 2 3 3 4 5 5 5 4 4 3 4 3 3 2 3 3 3 4 5 7 8 8 9 9 9 10 10 9 9 9 9 9 8 7 8 7 8 7 7 8 9 9 8 7 7 7 7 7 8 8 8 9 9 7 7 6 5
3 2 1 3 5 3 2 3 2 2 6 8 2 12 11 4 8 1 4 1 2 3 6 6 8 6 5 6 4 1 0 1 1 2 2 3 4 4 3 2 3 4 4 4 4 5 4 5 5 5 4 4 3 3 3 3 4 4 4 5 6 7 8 9 10 11 10 11 10 10 9 9 8 8 7 8 8 9 8 8 9 9 7 7 7 7 8 8 8 9 9 9 7 7 7 6 6
3 0 1 0 1 1 0 3 3 3 7 7 4 6 13 9 11 7 8 10 7 5 5 2 1 2 2 1 1 1 2 2 2 2 3 3 3 5 5 4 3 3 4 4 4 4 4 4 4 5 5 4 4 3 3 3 3 3 3 4 6 6 7 8 8 9 10 11 11 10 10 10 9 8 8 8 8 9 9 9 8 8 7 6 6 7 8 8 8 8 8 8 7 6 6 6 5
2 3 2 2 2 2 2 3 3 0 9 5 10 3 13 5 5 5 12 10 8 4 0 1 2 3 1 1 0 1 2 2 2 3 3 4 4 5 4 4 4 4 4 4 5 4 4 4 4 4 4 4 4 4 4 4 3 4 5 5 5 6 7 7 8 9 9 10 11 11 11 11 10 8 8 8 8 8 9 9 8 8 7 6 7 7 7 8 8 8 7 7 6 7 7 7 6
4 2 4 1 1 1 1 2 2 3 4 4 9 20 7 4 6 9 11 9 6 1 2 3 4 4 3 2 1 2 2 2 3 4 4 5 5 4 4 3 3 3 4 4 4 5 5 5 4 4 5 4 5 4 5 5 5 6 7 6 7 7 8 7 8 8 10 10 11 10 10 10 10 8 8 8 9 9 9 9 9 8 7 6 6 6 6 7 9 9 8 7 6 6 7 6 6
9 9 9 11 8 3 1 9 3 5 5 4 2 19 13 4 3 3 3 4 2 3 3 6 5 3 1 2 3 3 3 3 4 5 5 5 5 4 3 3 4 4 4 4 4 4 5 5 5 5 5 4 5 4 5 6 5 6 7 7 8 6 7 8 9 9 10 9 9 9 10 10 11 9 9 10 10 9 8 9 9 8 8 7 7 8 7 8 9 9 8 5 6 6 7 6 5
Wind_Direction
304 307 310 301 297 300 299 245 276 177 210 239 251 266 79 177 251 53 30 28 29 52 13 336 8 313 335 339 313 318 319 314 340 293 267 189 106 110 119 129 129 131 116 123 130 142 146 148 156 155 163 167 169 169 172 176 173 174 179 182 184 198 197 207 192 193 200 208 207 196 197 191 186 183 181 178 178 170 179 176 181 191 199 198 188 193 200 203 208 209 234 179 183 195 214 204 208
302 306 302 292 299 323 311 16 288 277 244 254 308 57 137 38 28 46 47 23 20 1 359 334 300 304 280 297 299 313 282 249 357 95 103 98 129 116 124 138 151 132 120 124 140 147 150 146 156 155 155 170 173 168 170 167 165 171 175 185 190 190 192 191 204 205 201 202 206 208 216 217 206 203 208 206 206 203 194 189 188 192 193 194 198 197 202 214 230 233 225 218 217 221 222 230 228
301 303 302 299 298 250 284 236 274 312 311 292 64 19 44 37 39 34 33 38 344 353 325 290 233 232 254 232 263 249 235 285 116 80 100 154 143 157 144 142 132 125 126 130 143 153 149 152 155 163 163 173 175 179 169 169 172 173 173 172 182 189 190 189 194 206 208 212 217 218 213 215 218 219 220 215 223 229 229 224 222 213 208 209 212 208 211 215 227 267 269 267 249 247 246 222 200
286 277 285 308 308 300 241 265 294 289 297 301 265 64 67 40 46 33 23 29 342 294 338 315 321 64 285 274 292 344 299 352 39 99 129 167 46 137 135 130 127 121 120 132 138 152 150 150 155 155 173 176 175 181 171 173 176 179 173 177 182 182 191 199 201 198 206 211 220 226 229 227 229 219 221 222 223 229 229 233 230 232 252 251 242 239 241 223 215 200 219 241 120 85 22 263 143
282 281 288 294 308 316 3 298 273 295 274 307 334 7 67 64 30 19 352 2 345 354 341 330 303 274 23 275 290 268 340 126 47 73 87 77 118 122 133 131 142 126 133 154 137 145 130 152 155 155 158 178 180 183 165 179 176 178 183 184 179 187 192 200 210 213 207 209 211 218 226 235 234 231 226 222 226 226 226 230 229 232 254 278 264 313 246 267 240 265 302 82 76 65 62 60 59
301 304 282 275 257 39 261 265 259 246 264 5 316 26 14 75 17 3 336 3 345 314 52 311 335 329 316 305 328 282 9 307 249 18 70 73 90 124 131 147 151 140 153 165 143 147 139 150 157 151 162 164 150 148 174 179 188 184 186 194 191 186 183 199 215 217 215 215 219 223 222 225 232 233 232 227 229 217 216 216 202 247 284 287 6 323 340 193 9 13 107 97 80 73 122 122 57
318 316 331 220 229 171 281 281 277 277 316 1 5 10 27 39 39 349 350 356 6 342 97 327 316 314 260 257 302 5 29 53 162 46 51 123 99 115 129 180 147 150 160 157 153 129 142 153 154 155 161 171 167 165 176 183 190 194 195 194 195 188 182 184 196 215 222 220 220 220 224 225 223 231 235 234 232 233 233 235 226 247 311 330 340 6 295 322 137 138 114 122 114 119 148 124 117
273 286 319 300 325 213 237 249 277 292 286 300 70 43 16 344 33 41 351 321 4 322 7 347 22 355 297 284 280 293 7 68 92 97 103 99 109 99 190 198 153 150 157 143 91 93 138 150 153 157 165 173 181 177 175 194 190 197 201 202 201 194 188 183 186 196 207 220 222 221 220 219 223 224 227 231 226 229 232 234 235 243 261 333 289 285 111 178 182 167 160 162 165 175 174 180 170
283 242 158 263 275 315 290 283 283 268 269 15 50 340 317 16 349 63 302 355 272 29 333 354 8 322 334 332 315 305 52 47 80 75 87 119 121 122 166 248 166 136 140 135 104 119 133 150 154 158 169 182 184 184 188 195 197 194 197 202 203 203 202 197 194 197 201 209 222 227 225 222 222 219 219 218 220 222 223 217 222 225 213 204 183 188 181 179 175 178 173 178 181 180 186 193 179
285 210 13 335 339 271 260 251 244 262 107 82 16 317 24 39 11 339 336 263 68 308 323 317 271 265 324 307 325 329 45 65 107 92 109 81 76 130 145 279 272 127 136 141 125 138 133 156 157 162 171 182 190 193 192 202 213 199 192 201 207 206 211 209 208 207 201 202 207 219 228 230 225 219 216 213 211 213 212 201 201 193 180 175 174 172 172 171 169 177 175 183 190 189 196 191 186
318 190 128 263 268 287 289 316 326 325 341 14 346 46 36 19 6 319 312 7 27 354 305 118 280 16 336 308 295 136 116 41 68 45 14 26 103 154 184 174 282 127 160 162 132 120 132 156 162 163 171 182 192 186 190 209 203 204 161 190 201 208 215 215 212 216 212 207 203 200 212 228 229 223 215 215 210 205 200 194 181 177 178 176 169 172 173 174 177 175 176 178 185 193 189 190 188
290 335 340 284 290 294 295 307 324 316 328 338 12 28 51 349 338 343 17 336 349 310 344 20 79 288 315 301 274 111 64 41 35 73 19 319 250 156 270 154 206 97 143 165 139 136 143 144 158 167 175 180 183 167 161 134 123 132 131 134 136 196 213 209 214 218 220 218 194 172 154 152 188 194 196 187 198 202 191 189 174 175 182 186 189 187 186 182 177 176 177 173 176 177 172 160 164
299 315 291 283 282 306 317 300 280 339 321 315 64 32 32 11 0 0 347 329 303 301 178 113 69 292 273 308 291 293 48 83 81 69 91 360 11 18 48 288 140 144 112 153 152 158 144 146 164 160 180 183 176 156 149 143 139 133 138 149 165 181 186 205 211 219 227 201 146 124 129 124 102 75 93 141 158 167 113 81 54 174 184 196 198 197 190 196 195 191 187 180 175 167 164 156 131
295 330 304 270 307 280 282 289 286 264 257 78 5 3 40 328 358 330 321 300 303 293 97 35 311 2 272 251 260 230 160 153 141 145 135 110 76 111 355 318 115 168 152 171 178 175 161 154 166 163 165 178 175 149 145 142 145 147 148 157 173 163 156 155 161 109 80 68 72 99 96 76 72 75 73 61 64 57 56 49 40 36 123 102 60 43 76 155 153 165 189 180 156 119 92 92 96
286 346 293 270 276 267 258 274 321 358 309 356 88 351 353 356 342 1 321 310 297 326 330 330 305 288 280 312 309 86 144 157 143 153 129 154 165 183 187 208 194 172 177 198 198 188 186 171 169 162 166 176 179 177 166 165 161 144 144 147 151 143 123 117 111 106 97 87 81 74 78 89 87 90 93 92 84 86 83 70 43 60 91 74 59 54 24 114 77 69 48 60 111 77 76 77 82
335 314 288 289 274 292 276 266 318 171 196 342 358 353 348 333 339 326 317 311 297 292 291 279 266 278 299 273 262 283 299 325 142 150 257 261 217 214 193 190 206 192 189 191 206 206 184 185 178 165 167 173 182 176 175 157 159 144 141 134 130 128 124 120 121 118 123 127 123 116 119 123 131 129 127 113 111 106 89 91 62 82 102 104 93 81 62 62 79 72 58 36 23 42 90 155 172
200 283 283 234 268 269 23 343 24 328 332 316 348 352 338 322 321 302 314 314 299 293 286 283 283 260 266 278 287 270 256 275 306 238 280 285 273 262 216 203 203 199 200 200 197 207 196 188 186 180 168 174 178 179 179 157 155 146 135 125 126 129 129 132 129 127 128 130 129 145 157 205 192 165 147 124 130 122 113 98 106 118 127 118 102 122 108 98 78 65 54 3 312 277 258 231 218
313 263 271 281 301 322 22 5 1 346 319 330 337 336 323 308 315 309 314 289 282 291 286 291 282 268 268 267 255 250 256 271 260 286 283 290 285 281 284 247 187 207 201 200 203 199 196 199 187 186 172 178 176 183 182 143 149 158 151 148 147 140 138 136 141 157 158 150 163 156 180 200 217 184 153 142 112 119 117 112 243 158 103 99 95 96 93 84 73 33 10 284 265 253 240 210 210
303 302 286 280 334 11 336 9 344 355 326 324 313 311 305 299 314 309 300 295 299 307 301 297 288 280 266 260 295 320 314 279 265 237 248 254 248 262 273 279 283 281 226 204 205 194 196 193 187 189 181 177 180 180 180 139 156 168 164 167 161 164 159 172 181 176 178 169 174 186 195 206 210 111 121 124 124 123 119 147 115 98 103 111 118 119 118 125 138 194 234 249 255 255 245 231 202
1 343 304 293 359 1 342 355 358 4 335 304 301 296 297 296 295 302 288 301 309 298 295 286 280 307 333 329 326 329 326 315 305 285 243 230 238 253 267 281 278 252 252 245 201 201 194 191 190 186 183 176 177 181 175 151 161 169 170 170 163 170 162 184 208 193 189 189 174 198 210 198 117 113 100 111 119 116 136 164 171 156 157 168 166 160 151 164 185 211 231 239 254 256 240 233 179
17 284 272 302 338 343 335 342 1 336 315 295 290 293 290 292 299 311 300 298 298 292 298 317 322 319 314 311 305 300 300 297 290 276 265 250 240 228 231 254 263 263 254 237 247 195 193 190 184 192 183 172 180 177 175 176 164 168 177 176 159 173 162 170 202 186 187 194 164 186 236 121 120 118 129 149 145 135 166 179 188 185 180 182 175 174 180 186 187 211 237 230 237 235 236 249 355
288 253 274 287 314 304 319 329 315 310 295 282 279 286 290 309 295 296 304 299 295 301 302 304 304 304 304 309 309 301 292 287 282 284 285 270 256 253 246 257 265 267 256 262 257 213 176 181 192 186 183 182 181 179 179 172 164 165 175 180 158 174 163 163 180 151 173 156 136 222 182 108 125 134 147 169 171 172 179 182 189 187 183 187 188 188 196 157 197 212 221 217 236 282 115 65 47
300 299 302 323 323 312 316 305 297 298 289 281 287 288 303 305 298 292 290 282 286 295 300 301 297 296 297 293 300 306 306 305 304 296 291 292 292 276 264 252 258 276 273 263 258 247 178 194 192 180 185 181 179 179 171 165 174 169 170 171 153 160 164 168 159 154 174 167 169 220 150 132 175 201 179 184 194 191 181 178 193 195 193 187 189 167 158 146 178 240 257 294 359 13 350 40 78
280 287 288 290 334 297 300 293 291 281 281 282 284 297 298 307 298 300 281 280 283 289 290 288 292 293 290 309 313 304 302 300 305 300 292 281 261 261 262 262 261 256 272 283 285 281 290 231 202 184 177 176 175 177 171 172 175 169 162 152 155 163 150 157 162 160 172 165 173 187 137 157 190 212 195 187 193 167 183 176 194 187 55 341 272 145 155 179 196 143 87 2 19 345 330 357 88
295 258 320 317 312 296 289 290 293 296 286 279 281 294 303 294 290 304 288 290 289 285 305 302 298 308 313 302 302 300 294 294 289 294 288 272 279 267 247 247 242 248 258 255 254 258 258 256 255 233 182 172 172 174 176 170 173 169 153 156 164 151 152 162 174 156 132 128 142 165 199 197 198 192 182 181 172 191 162 125 105 111 152 331 345 331 150 145 143 133 158 184 191 202 173 258 64
69 307 305 297 291 294 291 290 288 286 283 290 304 312 305 292 311 301 285 276 279 309 289 288 303 302 304 305 297 298 293 288 282 257 245 254 240 255 260 247 247 251 244 249 246 235 227 235 239 226 213 174 165 174 178 166 175 171 160 161 161 152 168 176 148 129 137 131 160 210 211 223 194 178 166 156 150 144 79 42 353 53 63 30 359 337 350 93 183 122 185 158 95 34 80 62 6
321 305 300 297 294 291 283 278 282 287 299 311 308 331 314 294 288 285 282 286 326 325 313 311 304 292 284 282 299 297 297 300 299 303 280 234 249 246 243 248 244 242 247 248 247 237 219 223 236 227 226 172 162 176 180 172 177 172 159 157 162 163 182 165 137 139 152 164 179 193 223 244 209 178 140 126 118 99 93 99 290 79 73 40 333 313 341 43 52 61 41 10 43 171 100 83 335
295 299 298 289 286 280 279 274 277 312 309 331 333 339 299 283 251 249 304 46 339 303 288 280 279 286 291 297 297 299 289 281 289 305 305 308 286 252 270 272 268 267 262 267 272 282 289 244 223 222 241 177 168 171 181 171 182 162 160 162 170 167 172 145 140 147 183 176 171 159 205 235 257 151 130 123 121 126 120 114 345 105 106 114 287 326 334 44 70 53 33 357 333 27 127 136 333
292 295 291 295 292 288 275 286 62 9 298 352 359 305 300 354 24 358 351 343 344 330 322 317 314 306 298 295 295 294 298 296 289 275 279 280 284 308 296 267 257 263 256 248 244 294 293 280 269 266 233 211 178 174 179 173 165 155 169 171 156 159 158 143 145 180 146 101 117 135 132 202 293 127 119 135 129 130 117 104 71 58 89 92 2 350 319 68 76 64 40 357 323 338 36 74 354
279 274 270 291 306 301 90 96 223 203 315 19 23 340 345 317 360 333 343 335 323 316 308 308 304 304 301 296 293 291 294 293 283 271 266 269 282 270 268 280 293 299 312 342 7 335 311 315 300 269 257 225 196 179 169 161 158 159 177 158 156 162 150 141 167 139 107 94 82 66 63 22 31 35 112 104 96 104 105 110 93 91 70 64 7 302 301 53 127 146 165 302 23 355 4 18 46
248 259 260 264 283 336 156 184 301 304 40 6 27 304 297 294 323 311 323 317 312 315 315 311 309 304 302 300 296 291 283 283 298 301 288 281 272 262 260 268 284 317 337 346 349 335 311 276 264 263 252 231 205 178 157 156 158 161 165 149 162 155 139 149 154 102 100 95 84 72 51 23 43 47 54 71 97 92 101 90 88 93 101 90 295 281 272 41 41 58 51 304 150 298 320 58 48
234 266 280 234 300 306 328 345 68 300 346 302 304 256 294 307 301 313 312 317 318 312 308 301 298 299 302 304 305 308 306 296 288 282 280 286 292 297 324 6 17 10 356 339 321 315 292 285 272 258 257 245 214 173 150 149 157 156 149 145 144 132 135 138 135 111 107 104 95 81 66 45 20 54 63 52 86 108 101 106 94 33 114 157 223 284 14 91 40 51 25 25 36 2 32 15 27
185 237 285 311 324 300 330 7 339 350 338 338 348 305 311 296 307 306 318 317 312 308 310 311 310 310 304 299 292 282 279 283 301 293 306 321 335 351 25 27 12 352 342 334 323 307 298 290 276 254 237 241 244 146 142 132 139 153 136 118 125 116 115 108 94 110 117 111 102 85 63 58 37 52 47 56 88 79 97 96 75 31 29 202 86 70 326 57 75 65 27 21 14 86 51 14 47
35 2 317 313 303 320 295 323 290 4 338 328 342 299 285 285 298 308 305 312 313 310 309 307 308 308 301 286 293 308 320 339 306 358 356 353 335 360 40 36 357 340 344 339 331 311 296 293 281 242 200 202 241 143 122 122 136 128 113 114 112 97 90 83 74 73 94 110 108 110 86 65 41 28 32 51 85 97 83 94 78 33 272 355 101 173 62 64 84 101 71 26 40 2 85 56 63
312 322 318 304 309 298 295 312 344 340 12 331 302 279 288 301 300 300 308 311 313 309 297 319 336 332 334 336 337 342 342 322 0 0 330 291 347 48 52 40 353 342 329 327 316 316 307 289 281 208 143 142 234 115 112 127 136 114 102 103 82 70 68 66 68 70 65 79 109 121 131 119 116 148 215 168 117 112 96 93 121 223 113 276 199 107 62 37 69 64 106 72 46 47 45 45 36
304 304 298 296 291 300 302 303 325 7 338 310 305 312 313 307 303 305 304 304 305 298 297 331 336 340 339 343 348 360 348 346 10 323 322 21 53 69 69 37 351 330 331 347 323 311 300 296 296 76 110 217 138 110 119 127 104 101 117 105 87 72 80 79 69 68 60 67 97 128 136 134 144 183 208 177 127 135 116 124 162 112 254 206 107 89 102 82 80 72 60 101 92 47 34 21 36
297 286 276 284 289 286 288 314 337 2 316 298 317 305 304 299 299 300 298 296 285 276 328 341 337 335 336 342 10 358 342 329 338 312 341 49 59 85 55 31 349 342 329 15 345 331 318 309 37 29 347 334 101 120 129 154 127 120 104 121 116 110 92 91 92 91 90 97 123 137 119 147 178 179 172 101 90 133 145 150 101 21 2 60 68 63 55 47 39 87 68 46 77 76 29 19 8
287 293 287 282 290 289 312 320 334 4 1 296 299 302 294 292 296 296 294 287 276 304 317 310 305 301 320 346 359 348 293 354 356 355 15 28 27 46 44 23 10 360 347 6 357 340 328 21 34 13 347 358 76 141 132 142 111 134 136 135 123 122 112 117 118 113 119 132 131 113 111 125 130 93 86 83 85 75 90 97 109 89 61 76 79 77 67 54 35 35 71 72 55 85 58 18 4
287 274 282 289 281 314 315 294 9 350 326 282 303 305 297 290 288 290 279 274 291 267 222 259 241 291 346 27 304 302 13 33 16 18 18 9 8 54 64 36 23 10 344 351 8 343 34 38 22 10 5 342 335 325 160 140 119 134 127 141 133 112 90 91 104 116 125 125 111 108 123 122 78 63 74 72 70 72 81 88 102 118 120 117 110 92 76 60 42 35 30 102 105 86 91 38 29
252 257 254 267 318 323 316 343 348 336 317 292 312 313 291 274 268 263 250 274 289 300 187 258 72 340 46 332 353 45 40 50 33 29 21 10 15 3 23 36 25 344 1 347 13 10 55 51 8 17 29 338 313 321 38 67 87 78 70 104 91 87 100 95 92 90 90 91 82 75 66 78 73 71 61 54 49 66 91 104 100 89 99 106 108 99 83 69 53 35 30 38 78 94 66 45 34
279 272 267 274 292 318 326 320 327 322 281 294 351 314 282 225 187 134 280 239 305 287 202 84 116 134 108 292 66 65 66 68 40 40 26 24 12 9 8 78 30 7 12 14 1 359 58 49 33 25 45 289 284 38 71 76 73 68 71 71 78 88 83 99 113 110 105 99 93 72 67 72 67 60 59 59 55 61 72 84 93 91 85 86 94 94 84 77 67 51 37 52 48 105 99 102 41
280 276 331 335 345 320 319 318 338 329 317 52 17 339 269 169 183 291 276 262 272 262 127 129 130 25 100 329 84 87 86 82 79 61 49 31 19 6 8 32 22 39 47 16 14 15 70 93 76 38 340 288 311 73 95 91 92 102 103 107 119 124 145 159 160 148 138 122 110 100 79 74 76 75 73 72 68 66 72 78 82 82 76 75 77 86 87 78 64 59 38 57 58 35 120 102 92
300 330 356 4 324 311 309 325 350 327 322 319 356 258 286 232 273 252 252 248 259 276 186 163 61 23 51 334 58 107 96 90 74 67 54 30 14 16 15 15 26 51 53 2 323 81 61 48 72 65 277 316 30 117 102 96 105 119 140 154 155 165 160 166 127 128 122 111 107 102 92 77 70 75 67 67 63 62 70 74 83 84 86 86 86 88 87 84 79 70 53 63 60 60 84 90 88
252 79 292 21 296 303 314 324 299 267 290 291 261 219 260 300 263 257 242 237 234 256 241 86 83 118 13 2 347 74 115 120 105 93 76 40 29 22 18 12 52 35 355 339 304 84 95 90 80 283 272 49 21 355 108 118 136 154 171 186 174 163 164 142 134 120 110 116 108 94 83 74 71 68 76 71 72 74 81 80 80 82 83 78 85 86 92 93 83 64 60 67 65 61 74 96 94
21 41 26 305 298 291 298 281 275 281 327 297 275 194 249 234 273 272 236 227 213 241 279 0 311 273 138 268 72 314 139 133 108 120 100 72 31 11 30 47 84 65 19 359 327 78 104 111 130 200 273 97 87 21 345 159 171 160 184 182 161 134 119 111 106 108 112 108 98 91 90 90 85 81 81 86 75 70 70 80 79 82 84 83 81 83 77 74 72 73 67 65 69 65 60 80 87
76 6 300 286 276 261 253 261 276 286 337 274 261 208 238 271 248 274 126 144 205 197 355 260 274 283 218 132 139 261 196 142 136 131 126 136 125 142 140 142 114 101 74 24 321 8 87 119 140 161 280 25 100 81 348 319 287 207 202 175 121 103 107 108 111 112 106 109 109 110 108 101 96 82 69 67 71 67 76 77 81 83 85 85 86 86 85 79 73 73 70 75 75 76 63 70 83
4 350 304 283 253 238 213 219 248 267 244 251 247 236 211 299 212 215 189 190 147 266 246 251 235 337 12 134 199 244 284 144 137 133 131 143 168 156 153 144 136 137 137 175 92 309 52 31 129 153 203 235 262 128 214 264 268 244 192 113 132 134 130 129 125 120 125 121 123 119 112 105 95 93 86 75 74 75 73 74 89 98 101 100 98 95 94 96 92 87 82 80 74 77 76 77 78
16 303 311 317 274 191 241 223 168 241 261 231 250 176 191 234 220 225 308 348 295 295 296 288 271 3 288 178 223 241 272 301 142 118 142 159 123 144 174 166 165 158 144 161 161 102 359 86 308 238 223 203 152 188 205 235 273 316 123 134 136 139 140 142 138 139 139 132 127 119 112 104 98 94 92 90 83 81 85 83 76 77 74 79 89 103 107 107 108 103 92 85 85 80 73 69 66
182 244 255 289 312 225 226 116 244 213 238 220 246 273 250 231 247 278 298 281 271 262 245 251 216 243 287 230 213 208 290 348 287 137 161 194 172 31 7 350 164 177 184 167 167 156 164 205 221 242 242 134 167 211 208 127 67 46 104 124 132 134 136 136 136 134 137 129 127 121 120 115 110 96 90 94 84 79 80 81 75 76 80 75 81 83 81 81 85 82 79 74 70 67 64 64 67
198 201 187 234 291 281 272 254 261 275 244 14 71 360 277 272 279 242 240 256 262 253 254 262 187 212 259 263 213 219 242 224 228 143 172 196 217 38 349 293 254 187 174 163 159 162 159 182 222 189 252 79 164 186 104 109 99 89 93 121 131 137 135 135 136 134 129 121 121 119 116 116 111 105 97 87 87 81 77 79 84 83 81 80 81 83 85 85 84 85 82 83 79 73 66 61 61
200 216 208 260 296 272 284 268 278 280 298 299 305 357 239 67 241 193 205 251 272 289 238 221 232 229 252 248 242 233 212 176 201 149 180 202 266 92 219 218 220 197 175 161 154 167 165 183 200 185 188 179 208 170 137 131 127 113 112 116 123 127 131 128 124 125 126 125 122 116 111 109 109 102 92 88 83 86 88 91 90 91 86 82 83 88 89 85 82 82 81 83 82 76 71 66 59
182 140 39 41 229 187 236 313 305 308 303 297 227 205 255 201 322 308 300 281 275 269 264 221 236 227 221 212 229 264 257 233 112 125 183 247 237 184 206 224 207 191 178 160 166 165 164 188 183 203 172 181 198 178 151 140 130 127 129 131 129 126 120 116 116 117 118 116 115 112 110 107 106 104 96 91 82 85 89 86 80 74 68 69 72 82 87 87 87 88 84 80 79 73 86 78 68
150 108 192 210 31 51 327 293 252 270 265 256 221 270 260 274 259 245 243 255 259 242 226 248 274 275 239 234 231 209 197 133 63 25 8 340 282 229 217 228 192 176 172 177 180 169 173 166 162 168 150 165 180 174 139 135 130 127 137 135 137 132 133 136 135 128 122 114 109 108 109 109 106 105 106 99 98 93 88 86 84 77 73 70 68 68 76 82 84 85 84 81 79 72 69 69 64
100 196 250 65 45 83 135 279 335 280 265 273 207 267 285 302 300 278 136 241 257 212 243 209 216 216 234 244 233 194 136 38 17 1 346 305 268 235 224 211 191 183 181 173 171 161 162 158 161 158 161 164 174 146 143 145 140 131 128 125 123 129 134 133 131 129 124 117 114 113 113 111 110 109 107 107 107 104 97 93 92 88 85 81 82 82 84 86 88 84 83 79 80 81 82 70 62
217 153 28 116 231 269 128 41 280 297 274 288 235 267 265 238 252 276 274 274 266 232 204 168 238 209 240 279 316 41 14 347 322 305 296 299 255 229 221 221 189 162 152 160 144 129 127 136 156 158 170 166 157 138 125 110 110 116 119 119 119 117 117 120 123 122 122 123 123 121 116 113 108 106 108 111 111 107 105 100 97 95 89 89 91 95 97 94 90 88 79 80 76 81 83 77 58
242 73 267 140 76 290 168 183 260 52 277 311 285 198 264 172 256 253 256 238 238 246 57 286 271 246 248 246 139 332 287 244 254 271 275 276 267 215 207 195 177 170 159 150 135 132 143 147 138 141 120 113 121 126 118 111 102 104 100 92 87 94 101 111 118 123 121 117 118 119 118 116 116 115 113 112 107 103 101 101 94 91 88 80 78 74 77 81 81 79 81 82 83 87 83 80 72
191 187 225 218 197 58 59 312 200 214 261 257 306 293 232 196 199 236 246 242 240 230 221 225 243 253 231 204 262 264 251 251 247 254 263 270 270 217 193 160 143 134 139 144 147 161 162 140 151 142 142 141 140 139 126 125 121 114 109 102 104 103 102 102 104 107 111 115 118 119 120 120 117 109 108 105 103 102 98 96 96 94 95 93 90 88 83 87 85 84 77 76 75 81 89 86 88
190 189 204 195 168 171 180 265 156 232 222 231 173 269 275 150 222 262 253 240 254 260 285 285 261 240 261 259 250 248 259 234 234 246 255 266 268 215 175 139 140 147 161 171 173 157 155 154 160 143 141 154 146 139 136 130 120 120 118 118 112 105 104 109 110 110 113 116 116 116 118 114 109 105 104 103 101 99 99 99 99 101 99 97 92 91 90 88 89 89 87 89 91 93 96 97 92